Back to catalog

CZ-6A DEB

AliveSSO
NORAD 54395·DEBRIS·🇨🇳 China

Launched Nov 11, 2022 from Taiyuan Satellite Launch Center

Loading…

Next Passes (next 24 hours)

TLE

FreshSource: Space-Track

Epoch: Sep 14, 2026, 13:14 UTC

1 54395U 22151DT  26257.55145856  .00001970  00000-0  43174-3 0  9997
2 54395  98.4613 288.8007 0119394  17.6785 342.8512 14.54491538202556

Track CZ-6A DEB in real time with AllMySat

Download on the App Store